Location: Unspecified
(39.7390°N, 0.0000°E)
Time: 15:40:53
(UTC+00:00)

BlueWalker 3 - Visible Passes

Search period start: 04 April 2026 00:00
Search period end: 14 April 2026 00:00
Orbit: 451 x 457 km, 53.2° (Epoch: 29 March)

Date Brightness Start Highest point End Pass type
(mag) Time Alt. Az. Time Alt. Az. Time Alt. Az.
4 Apr 4.1 19:46:37 10° NNW 19:48:42 15° NNE 19:50:14 12° NE visible
4 Apr 4.8 21:23:10 10° NW 21:23:54 15° NW 21:23:54 15° NW visible
5 Apr 4.2 19:10:23 10° NNW 19:12:08 13° NNE 19:13:51 10° NE visible
5 Apr 3.5 20:46:50 10° NW 20:48:55 29° NNW 20:48:55 29° NNW visible
6 Apr 2.7 20:10:30 10° NW 20:13:49 34° NNE 20:13:58 34° NE visible
7 Apr 3.1 19:34:10 10° NNW 19:37:19 28° NNE 19:39:04 19° ENE visible
7 Apr 4.3 21:11:27 10° WNW 21:12:44 19° WNW 21:12:44 19° WNW visible
8 Apr 3.4 18:57:51 10° NNW 19:00:47 23° NNE 19:03:42 10° E visible
8 Apr 2.5 20:34:54 10° WNW 20:37:52 47° W 20:37:52 47° W visible
9 Apr 1.7 19:58:23 10° NW 20:01:59 75° SW 20:03:03 42° SSE visible
10 Apr 1.7 19:21:55 10° NW 19:25:31 79° NE 19:28:17 16° SE visible
10 Apr 4.7 21:01:30 10° WSW 21:01:59 11° WSW 21:01:59 11° WSW visible
11 Apr 4.2 20:23:56 10° W 20:26:05 15° SW 20:27:18 13° SSW visible
12 Apr 3.9 19:46:57 10° W 19:49:42 21° SW 19:52:26 10° S visible
13 Apr 3.5 19:10:10 10° WNW 19:13:17 28° SW 19:16:24 10° SSE visible
